[[{"header":{"parameterUnit":"m.s-1","parameterCategory":1,"la1":30.2991,"la2":30.254,"lo1":-89.0895,"lo2":-89.0444,"dy":0.0017,"dx":0.0017,"nx":28,"ny":28,"refTime":"2024-03-24T09:00:00:Z","depth":0,"parameterNumber":2,"parameterNumberName":"U-component_of_WINDS"},"data":[0,0,0,0,0,0,0,0,0,0,0,0,0,0,0,0,0,0,0,0,0,0,0,0,0,0,0,0,0,0,0,0,0,0,0,0,0,0,0,0,0,0,0,0,0,0,0,0,0,0,0,0,0,0,0,0,0,0,-7.5141,-7.5142,0,-7.5263,-7.5265,-7.5266,-7.5286,-7.5285,-7.5284,-7.5283,-7.5405,-7.5409,-7.5413,0,0,0,0,0,0,0,0,0,0,0,0,0,-7.4923,-7.4927,-7.5141,-7.5142,-7.5144,-7.5263,-7.5265,-7.5266,-7.5286,-7.5285,-7.5284,-7.5283,-7.5403,-7.5408,-7.5413,0,0,0,0,0,0,0,0,0,0,0,0,0,-7.5028,-7.4928,-7.5141,-7.5168,-7.5172,-7.5263,-7.5265,-7.5267,-7.5287,-7.5285,-7.5283,-7.5282,-7.5402,-7.5408,-7.5414,-7.5484,0,0,-7.5433,-7.5436,0,0,0,0,0,0,0,0,-7.5022,-7.5036,-7.5163,-7.5167,-7.5171,-7.5258,-7.5232,-7.534,-7.5287,-7.5243,-7.5283,-7.5281,-7.5357,-7.5367,-7.5393,-7.549,-7.5495,-7.5434,-7.5438,-7.544,-7.5442,0,0,0,0,0,0,0,-7.5015,-7.5031,-7.5189,-7.5165,-7.517,-7.5174,-7.5187,-7.5253,-7.5307,-7.5247,-7.5248,-7.5263,-7.5359,-7.5387,-7.5396,-7.5497,-7.5434,-7.5439,-7.5443,-7.5446,-7.5659,-7.5661,0,0,0,0,0,0,-7.5003,-7.5025,-7.5185,-7.5193,-7.5091,-7.5179,-7.5194,-7.5231,-7.5306,-7.5316,-7.5264,-7.5263,-7.5377,-7.5389,-7.54,-7.5487,-7.544,-7.5446,-7.545,-7.5657,-7.5659,-7.5661,0,0,0,0,0,0,-7.4998,-7.5017,-7.518,-7.511,-7.5131,-7.5185,-7.5227,-7.5235,-7.5263,-7.532,-7.5329,-7.5283,-7.5376,-7.5391,-7.5464,-7.5491,-7.5449,-7.5455,-7.5655,-7.5658,-7.566,-7.5661,0,0,0,0,0,0,-7.4992,-7.5015,-7.5043,-7.511,-7.5134,-7.5242,-7.5228,-7.5238,-7.5274,-7.5274,-7.534,-7.5349,-7.5376,-7.5454,-7.547,-7.5499,-7.546,-7.5652,-7.5656,-7.5659,-7.5659,-7.5664,-7.5668,0,0,0,0,0,-7.4984,-7.5037,-7.5044,-7.5063,-7.517,-7.5244,-7.5257,-7.5288,-7.5276,-7.5304,-7.5341,-7.5347,-7.5487,-7.5461,-7.5479,-7.5511,-7.5651,-7.5655,-7.5659,-7.5657,-7.5663,-7.5668,0,0,0,0,0,0,-7.497,-7.5047,-7.5055,-7.5132,-7.5181,-7.5247,-7.5282,-7.5294,-7.5346,-7.5344,-7.538,-7.5394,-7.5464,-7.5496,-7.5466,-7.5584,-7.5568,-7.5576,-7.556,-7.5566,-7.557,-7.556,-7.5465,0,0,0,0,0,-7.4976,-7.5031,-7.5094,-7.5156,-7.5181,-7.5228,-7.5261,-7.5281,-7.5333,-7.5353,-7.5395,-7.5445,-7.55,-7.5535,-7.5589,-7.5665,-7.5679,-7.5696,-7.5701,-7.5704,-7.5709,-7.5751,-7.5759,-7.5675,-7.5675,-7.5675,0,0,-7.4989,-7.5037,-7.5069,-7.5155,-7.5195,-7.525,-7.5245,-7.5302,-7.5343,-7.5362,-7.5432,-7.5466,-7.5523,-7.5597,-7.5632,-7.5625,-7.5737,-7.5709,-7.5712,-7.5715,-7.5756,-7.5764,-7.5771,-7.5678,-7.5677,-7.5677,0,0,-7.5039,-7.5082,-7.5138,-7.5179,-7.5242,-7.5273,-7.5287,-7.5352,-7.5375,-7.5447,-7.5462,-7.5511,-7.5606,-7.5646,-7.5679,-7.5748,-7.5755,-7.5765,-7.5787,-7.5828,-7.5834,-7.584,-7.5863,-7.5871,-7.5771,-7.5771,-7.5771,0,-7.5045,-7.5129,-7.5165,-7.5222,-7.5259,-7.5282,-7.5338,-7.5376,-7.5453,-7.5477,-7.547,-7.559,-7.563,-7.5714,-7.5731,-7.5758,-7.5773,-7.5756,-7.5831,-7.5837,-7.5843,-7.5865,-7.5874,-7.5772,-7.5772,-7.5772,-7.5772,0,-7.5134,-7.5192,-7.523,-7.5304,-7.5346,-7.5403,-7.5446,-7.5484,-7.5502,-7.5534,-7.5607,-7.5657,-7.5722,-7.5744,-7.5761,-7.5831,-7.5824,-7.5824,-7.5808,-7.5851,-7.5872,-7.5881,-7.5773,-7.5772,-7.5772,-7.5772,0,0,-7.5174,-7.5271,-7.5283,-7.5318,-7.539,-7.5435,-7.5493,-7.5558,-7.5589,-7.5643,-7.5691,-7.5772,-7.5772,-7.581,-7.5832,-7.5868,-7.5918,-7.5863,-7.5865,-7.5869,-7.5997,-7.5995,-7.6004,-7.5925,-7.5927,-7.5929,-7.5991,0,-7.5231,-7.5336,-7.5371,-7.5457,-7.5511,-7.5535,-7.5585,-7.5635,-7.5667,-7.5717,-7.5753,-7.5809,-7.5806,-7.5829,-7.5866,-7.5904,-7.5944,-7.5901,-7.5969,-7.5971,-7.595,-7.6015,-7.6013,-7.6069,-7.6,-7.6001,-7.6003,0,-7.531,-7.5365,-7.5458,-7.5524,-7.5548,-7.5593,-7.5655,-7.5704,-7.5761,-7.5782,-7.5825,-7.5846,-7.5907,-7.5891,-7.5975,-7.5945,-7.5976,-7.6,-7.6003,-7.6007,-7.5987,-7.6019,-7.6088,-7.6096,-7.6016,-7.6015,-7.6014,0,-7.5327,-7.5426,-7.5493,-7.5523,-7.5602,-7.5633,-7.5668,-7.5724,-7.5761,-7.5816,-7.584,-7.5902,-7.5934,-7.5981,-7.6018,-7.6003,-7.6099,-7.6085,-7.6116,-7.6115,-7.6132,-7.613,-7.6204,-7.6157,-7.6157,-7.6157,-7.6157,0,-7.5385,-7.5439,-7.5502,-7.5544,-7.5606,-7.5647,-7.5707,-7.5743,-7.5793,-7.5842,-7.5867,-7.5912,-7.5959,-7.601,-7.6039,-7.6104,-7.6119,-7.6137,-7.6143,-7.6133,-7.613,-7.6151,-7.6146,-7.6159,-7.6159,-7.6158,-7.6158,0,-7.5413,-7.5457,-7.5533,-7.5603,-7.5623,-7.5665,-7.5725,-7.5766,-7.5802,-7.5863,-7.5879,-7.5934,-7.5995,-7.6038,-7.6116,-7.6136,-7.6205,-7.6213,-7.6186,-7.6188,-7.6216,-7.6212,-7.6304,-7.6317,-7.6264,-7.6264,-7.6264,0,-7.5445,-7.5488,-7.5564,-7.5599,-7.5634,-7.569,-7.5728,-7.5771,-7.581,-7.588,-7.5912,-7.5976,-7.6028,-7.6126,-7.6172,-7.6232,-7.624,-7.6268,-7.6248,-7.6237,-7.6237,-7.6233,-7.6237,-7.6269,-7.627,-7.627,-7.627,0,-7.5496,-7.5517,-7.5572,-7.5636,-7.5681,-7.5733,-7.5785,-7.5812,-7.5864,-7.5906,-7.597,-7.6012,-7.6093,-7.6155,-7.6221,-7.6256,-7.6271,-7.6277,-7.6287,-7.6275,-7.6256,-7.6265,-7.6191,-7.6273,-7.6273,-7.6273,-7.6273,-7.6272,-7.5526,-7.5565,-7.5625,-7.5686,-7.573,-7.5779,-7.5821,-7.5862,-7.5917,-7.5987,-7.6009,-7.6075,-7.6133,-7.6223,-7.6259,-7.6311,-7.6309,-7.6323,-7.6327,-7.6329,-7.6328,-7.6251,-7.6324,-7.6324,-7.6324,-7.6324,-7.6324,0,-7.5577,-7.5617,-7.5673,-7.5746,-7.5794,-7.5807,-7.5866,-7.5905,-7.5963,-7.6016,-7.6068,-7.6142,-7.6204,-7.6256,-7.632,-7.6351,-7.636,-7.6366,-7.6362,-7.637,-7.6327,-7.6311,-7.6358,-7.6358,-7.6358,-7.6358,-7.6358,-7.6358,-7.5608,-7.5676,-7.5704,-7.5794,-7.5834,-7.59,-7.5932,-7.5977,-7.6019,-7.6101,-7.6152,-7.6187,-7.624,-7.6308,-7.6365,-7.6379,-7.64,-7.6404,-7.6419,-7.6377,-7.6373,-7.6369,-7.6354,-7.6409,-7.6409,-7.6458,-7.6458,-7.6459]},{"header":{"parameterUnit":"m.s-1","parameterCategory":1,"la1":30.2991,"la2":30.254,"lo1":-89.0895,"lo2":-89.0444,"dy":0.0017,"dx":0.0017,"nx":28,"ny":28,"refTime":"2024-03-24T09:00:00:Z","depth":0,"parameterNumber":3,"parameterNumberName":"V-component_of_WINDS"},"data":[0,0,0,0,0,0,0,0,0,0,0,0,0,0,0,0,0,0,0,0,0,0,0,0,0,0,0,0,0,0,0,0,0,0,0,0,0,0,0,0,0,0,0,0,0,0,0,0,0,0,0,0,0,0,0,0,0,0,6.167,6.167,0,6.1697,6.1697,6.1697,6.1676,6.1675,6.1674,6.1674,6.1699,6.17,6.1701,0,0,0,0,0,0,0,0,0,0,0,0,0,6.1601,6.1603,6.167,6.167,6.1671,6.1697,6.1697,6.1697,6.1676,6.1675,6.1674,6.1673,6.1698,6.17,6.1702,0,0,0,0,0,0,0,0,0,0,0,0,0,6.163,6.1603,6.167,6.1664,6.1663,6.1697,6.1697,6.1697,6.1677,6.1675,6.1674,6.1673,6.1697,6.17,6.1702,6.1742,0,0,6.1709,6.171,0,0,0,0,0,0,0,0,6.1628,6.1632,6.1664,6.1664,6.1664,6.1682,6.1682,6.1712,6.1677,6.1671,6.1674,6.1672,6.1694,6.1696,6.1704,6.1744,6.1745,6.1709,6.171,6.1711,6.1712,0,0,0,0,0,0,0,6.1626,6.1631,6.1681,6.1665,6.1664,6.1659,6.1662,6.1688,6.169,6.1672,6.167,6.1674,6.1694,6.1702,6.1705,6.1745,6.1709,6.1711,6.1712,6.1713,6.1822,6.1824,0,0,0,0,0,0,6.1625,6.163,6.168,6.1681,6.1642,6.1662,6.1664,6.1677,6.1689,6.169,6.1675,6.1673,6.1699,6.1702,6.1705,6.1756,6.1711,6.1713,6.1715,6.1821,6.1823,6.1824,0,0,0,0,0,0,6.1624,6.163,6.1679,6.1655,6.1661,6.1664,6.1679,6.1679,6.1687,6.1692,6.1692,6.1683,6.1698,6.1702,6.1734,6.1756,6.1714,6.1716,6.1819,6.1821,6.1824,6.1856,0,0,0,0,0,0,6.1622,6.1629,6.1645,6.1656,6.1662,6.1707,6.168,6.168,6.1691,6.1689,6.17,6.17,6.1697,6.1731,6.1737,6.1759,6.1718,6.1817,6.182,6.1823,6.1853,6.1859,6.1865,0,0,0,0,0,6.1619,6.1651,6.1645,6.1652,6.1682,6.1708,6.1712,6.1709,6.1693,6.1709,6.1712,6.17,6.1753,6.1735,6.174,6.1764,6.1816,6.1819,6.1823,6.185,6.1858,6.1864,0,0,0,0,0,0,6.1641,6.1653,6.1646,6.1683,6.1695,6.1705,6.1724,6.1716,6.1732,6.1729,6.1723,6.1726,6.176,6.1765,6.1744,6.1805,6.1782,6.1787,6.1801,6.1808,6.1814,6.1812,6.172,0,0,0,0,0,6.1651,6.1672,6.168,6.1712,6.1719,6.1721,6.1732,6.1729,6.1741,6.1745,6.1751,6.1763,6.1783,6.1795,6.1813,6.1854,6.1857,6.1873,6.1878,6.1883,6.1888,6.1912,6.192,6.1836,6.1836,6.1836,0,0,6.1669,6.1678,6.1692,6.1717,6.1726,6.1749,6.1725,6.1749,6.1766,6.1749,6.178,6.1785,6.1798,6.1835,6.1852,6.184,6.1912,6.1888,6.1891,6.1893,6.1916,6.1924,6.1931,6.1838,6.1838,6.1837,0,0,6.1716,6.1724,6.1753,6.1763,6.1778,6.178,6.1787,6.1799,6.1802,6.1833,6.1822,6.1842,6.1875,6.1886,6.1895,6.195,6.194,6.1956,6.1986,6.2009,6.2016,6.2022,6.2043,6.2051,6.196,6.196,6.196,0,6.1738,6.1772,6.1768,6.1795,6.1807,6.1794,6.1824,6.1834,6.1853,6.1862,6.1849,6.1893,6.19,6.1941,6.1955,6.1962,6.1971,6.1954,6.2015,6.2021,6.2027,6.2047,6.2055,6.1962,6.1962,6.1962,6.1961,0,6.1799,6.1823,6.1844,6.1866,6.188,6.1907,6.1909,6.1924,6.192,6.1923,6.1957,6.1966,6.1987,6.1996,6.1991,6.2037,6.203,6.2016,6.1993,6.2037,6.2056,6.2064,6.1965,6.1964,6.1963,6.1963,0,0,6.1858,6.188,6.1888,6.1899,6.1916,6.1934,6.1962,6.1984,6.1998,6.2013,6.2037,6.2067,6.2055,6.2066,6.2063,6.2083,6.2129,6.2068,6.2068,6.208,6.2182,6.2194,6.2203,6.2122,6.2124,6.2125,6.2182,0,6.1908,6.1957,6.1957,6.2003,6.2026,6.2016,6.2041,6.2054,6.2058,6.2078,6.2083,6.2105,6.2087,6.2094,6.2114,6.2119,6.2149,6.2115,6.2145,6.2147,6.2144,6.2212,6.2224,6.2277,6.2189,6.219,6.2191,0,6.1971,6.1991,6.204,6.2056,6.2066,6.2088,6.211,6.2129,6.2144,6.2146,6.216,6.2154,6.2184,6.2159,6.22,6.2177,6.2189,6.2194,6.2196,6.22,6.2172,6.2219,6.2294,6.2303,6.2202,6.2202,6.2201,0,6.2013,6.2051,6.2086,6.2095,6.2114,6.2131,6.2139,6.2154,6.2168,6.2187,6.2196,6.2217,6.2229,6.2246,6.2247,6.2228,6.2289,6.2264,6.2292,6.2292,6.2306,6.2305,6.2385,6.2311,6.2311,6.2311,6.2311,0,6.2069,6.21,6.2106,6.2127,6.2162,6.2162,6.2196,6.2203,6.2216,6.224,6.2231,6.2253,6.2251,6.2274,6.2274,6.2309,6.2314,6.2317,6.2317,6.2319,6.2319,6.2328,6.2325,6.2313,6.2313,6.2312,6.2312,0,6.2122,6.2126,6.2165,6.2181,6.2186,6.2211,6.2225,6.2246,6.225,6.228,6.2287,6.2293,6.2319,6.2322,6.2351,6.2351,6.2395,6.239,6.239,6.239,6.2419,6.2417,6.2509,6.2522,6.2438,6.2439,6.2439,0,6.2158,6.2182,6.2202,6.2218,6.2228,6.2253,6.2268,6.2269,6.2285,6.2306,6.2325,6.2351,6.2371,6.2414,6.2421,6.2444,6.2441,6.2472,6.2444,6.2446,6.2444,6.2443,6.2447,6.2477,6.2478,6.2479,6.2479,0,6.2223,6.2225,6.2248,6.2273,6.2292,6.2311,6.2328,6.2342,6.2344,6.2363,6.2391,6.2407,6.2439,6.2465,6.2489,6.2497,6.249,6.2488,6.2496,6.2499,6.2499,6.2502,6.2407,6.2486,6.2485,6.2485,6.2485,6.2484,6.227,6.2292,6.231,6.2337,6.2351,6.2369,6.239,6.2398,6.2422,6.2449,6.2447,6.2479,6.2495,6.2526,6.2537,6.2561,6.2551,6.2562,6.2565,6.2569,6.2573,6.2494,6.2565,6.2565,6.2565,6.2564,6.2564,0,6.2336,6.2348,6.2373,6.24,6.2421,6.2413,6.2433,6.2451,6.2479,6.2496,6.2517,6.255,6.2576,6.2586,6.2612,6.263,6.2627,6.2637,6.2636,6.2639,6.2579,6.2571,6.2639,6.2639,6.2639,6.2639,6.2639,6.2639,6.2373,6.2412,6.2416,6.2462,6.2473,6.2505,6.2517,6.2534,6.2548,6.2586,6.2608,6.2615,6.2629,6.2656,6.268,6.2682,6.2693,6.2705,6.2706,6.265,6.2643,6.2636,6.2628,6.2706,6.2707,6.2763,6.2764,6.2764]}]]